This demonstration page uses our WeatherBlox Daily Observations layout. Learn more.

Left ArrowRight Arrow

38.20091, -84.87328

Hourly Observations for July 7, 2018

Temp ( °F °C ) Dew Point ( °F °C ) Humidity (%) Winds ( mph kmh ) Pressure ( in mb ) Visibility ( mi km ) Precip ( " mm )
12:53 am 00:53 Cloudy 70 21.1 54 12.2 57 57 NNE 6 9 30.22 1023 10 16 0.00 0.00
1:53 am 01:53 Clear 68 20 53 11.7 59 59 NNE 6 9 30.21 1023 10 16 0.00 0.00
2:53 am 02:53 Clear 67 19.4 52 11.1 59 59 NE 8 13 30.21 1023 10 16 0.00 0.00
3:53 am 03:53 Clear 65 18.3 53 11.7 66 66 VRB 5 7 30.21 1023 10 16 0.00 0.00
4:53 am 04:53 Clear 64 17.8 53 11.7 68 68 NE 8 13 30.21 1023 10 16 0.00 0.00
5:53 am 05:53 Clear 63 17.2 54 12.2 73 73 NE 8 13 30.22 1023 10 16 0.00 0.00
6:53 am 06:53 Sunny 62 16.7 54 12.2 75 75 NE 6 9 30.22 1023 10 16 0.00 0.00
7:53 am 07:53 Sunny 64 17.8 55 12.8 73 73 NNE 6 9 30.24 1024 10 16 0.00 0.00
8:53 am 08:53 Sunny 67 19.4 56 13.3 68 68 NE 10 17 30.25 1024 10 16 0.00 0.00
9:53 am 09:53 Sunny 71 21.7 58 14.4 63 63 NE 9 15 30.25 1025 10 16 0.00 0.00
10:53 am 10:53 Sunny 74 23.3 60 15.6 62 62 ENE 10 17 30.25 1025 10 16 0.00 0.00
11:53 am 11:53 Sunny 77 25 61 16.1 58 58 E 7 11 30.25 1024 10 16 0.00 0.00
12:53 pm 12:53 Sunny 80 26.7 61 16.1 52 52 VRB 7 11 30.24 1024 10 16 0.00 0.00
1:53 pm 13:53 Sunny 81 27.2 60 15.6 49 49 NE 10 17 30.23 1024 10 16 0.00 0.00
2:53 pm 14:53 Sunny 83 28.3 58 14.4 43 43 NNE 7 11 30.21 1023 10 16 0.00 0.00
3:53 pm 15:53 Sunny 83 28.3 59 15 44 44 NE 8 13 30.20 1023 10 16 0.00 0.00
4:53 pm 16:53 Sunny 84 28.9 59 15 43 43 NE 12 19 30.19 1022 10 16 0.00 0.00
5:53 pm 17:53 Sunny 84 28.9 61 16.1 46 46 NNE 9 15 30.17 1022 10 16 0.00 0.00
6:53 pm 18:53 Sunny 83 28.3 60 15.6 46 46 ENE 12 19 30.17 1022 10 16 0.00 0.00
7:53 pm 19:53 Sunny 82 27.8 59 15 46 46 NNE 7 11 30.16 1022 10 16 0.00 0.00
8:53 pm 20:53 Sunny 79 26.1 59 15 50 50 NE 6 9 30.17 1022 10 16 0.00 0.00
9:53 pm 21:53 Clear 76 24.4 59 15 56 56 NNE 3 6 30.18 1022 10 16 0.00 0.00
10:53 pm 22:53 Clear 74 23.3 62 16.7 67 67 NNE 5 7 30.20 1023 10 16 0.00 0.00
11:53 pm 23:53 Clear 72 22.2 61 16.1 68 68 NNE 3 6 30.20 1023 10 16 0.00 0.00

Powered by AerisWeather